This is the latest recevied weather packets stored in our database for station/object G7GFU-13. If no packets are shown the sender has not sent any weather packets the latest 10 day(s).
| Time | Temp. | Humidity | Pressure | Rain* | Wind** | Luminosity | Snow |
|---|---|---|---|---|---|---|---|
| 1777621503 | 15.56° C | 48% | 1019.3 hPa | 0 mm | - | - | - |
| 1777619883 | 14.44° C | 49% | 1019.3 hPa | 0 mm | - | - | - |
| 1777617903 | 13.89° C | 49% | 1019.4 hPa | 0 mm | - | - | - |
| 1777614843 | 11.11° C | 55% | 1019.4 hPa | 0 mm | - | - | - |
| 1777610838 | 10° C | 57% | 1019.3 hPa | 0 mm | - | - | - |
| 1777608543 | 10° C | 56% | 1019.3 hPa | 0 mm | - | - | - |
| 1777606023 | 11.11° C | 51% | 1019.5 hPa | 0 mm | - | - | - |
| 1777600803 | 10.56° C | 53% | 1020.3 hPa | 0 mm | - | - | - |
| 1777598823 | 11.11° C | 51% | 1020.5 hPa | 0 mm | - | - | - |
| 1777597203 | 10.56° C | 54% | 1020.6 hPa | 0 mm | - | - | - |
| 1777596437 | 11.11° C | 53% | 1020.7 hPa | 0 mm | - | - | - |
| 1777591623 | 12.22° C | 50% | 1020.8 hPa | 0 mm | - | - | - |
| 1777585503 | 14.44° C | 47% | 1020.6 hPa | 0 mm | - | - | - |
| 1777581363 | 16.11° C | 45% | 1020.2 hPa | 0 mm | - | - | - |
| 1777577763 | 17.78° C | 36% | 1019.8 hPa | 0 mm | - | - | - |
| 1777577223 | 18.33° C | 36% | 1019.8 hPa | 0 mm | - | - | - |
| 1777574703 | 18.89° C | 37% | 1019.5 hPa | 0 mm | - | - | - |
| 1777569483 | 20.56° C | 32% | 1019.4 hPa | 0 mm | - | - | - |
| 1777566963 | 21.11° C | 33% | 1019.6 hPa | 0 mm | - | - | - |
| 1777563903 | 21.67° C | 32% | 1019.9 hPa | 0 mm | - | - | - |
| 1777561743 | 21.67° C | 33% | 1020 hPa | 0 mm | - | - | - |
| 1777560843 | 21.11° C | 32% | 1020.1 hPa | 0 mm | - | - | - |
| 1777557244 | 21.11° C | 35% | 1020.7 hPa | 0 mm | - | - | - |
| 1777553643 | 20.56° C | 33% | 1021 hPa | 0 mm | - | - | - |
| 1777543743 | 18.33° C | 40% | 1022.9 hPa | 0 mm | - | - | - |
* Rain latest hour (hover to see other rain measurements)
** Current wind speed in m/s (hover to see current wind gust speed)